Wind_Speed
16 11 12 15 19 22 24 29 32 30 26 25 23 21 22 21 22 24 27 29 28 28 24 24 24 21 22 21 21 21 16 15
14 12 9 14 19 22 23 24 29 30 29 28 24 26 25 23 25 24 25 25 25 24 27 24 23 21 22 23 22 21 22 20
13 10 8 9 13 16 20 22 23 25 22 22 15 20 23 25 23 22 23 23 23 23 24 25 25 24 21 23 24 20 21 24
11 6 6 8 7 7 17 19 20 21 20 25 17 17 12 18 20 21 22 20 20 21 21 22 24 26 24 25 24 27 22 27
3 2 5 6 6 4 12 16 19 20 25 23 24 16 12 15 19 20 19 19 20 20 21 22 23 24 23 25 27 28 23 19
5 2 4 4 3 8 13 16 17 21 21 21 21 14 11 14 13 14 16 18 18 18 18 20 20 20 21 22 24 24 28 21
6 3 5 4 5 10 15 18 18 18 18 17 18 18 15 13 11 11 12 11 12 14 15 15 14 16 17 19 20 22 26 29
9 8 7 7 6 10 14 16 17 16 15 15 15 14 13 9 9 9 11 10 12 13 11 11 11 12 15 16 18 21 21 25
9 8 8 9 9 10 12 14 14 13 12 11 10 10 9 8 8 8 7 7 8 9 10 11 12 12 13 13 15 15 18 22
9 7 9 9 10 10 11 13 13 11 11 9 8 7 6 5 4 4 4 5 6 8 9 12 13 13 14 15 15 15 17 20
10 8 9 10 10 10 13 13 13 12 11 10 9 7 5 4 4 4 4 4 5 7 9 12 14 14 15 15 15 16 16 17
11 9 11 11 11 12 13 12 12 10 10 9 10 9 8 6 4 3 0 2 4 6 9 12 13 13 14 16 17 16 17 19
8 9 14 13 12 12 12 13 12 9 10 10 9 8 8 7 5 3 3 3 4 6 8 9 12 14 15 16 16 17 18 18
8 9 8 11 11 12 12 11 10 9 9 8 7 6 5 4 3 2 1 3 4 7 8 10 12 13 18 17 18 19 19 20
10 11 9 13 12 13 12 10 8 6 5 3 2 1 0 1 2 3 5 6 7 8 9 12 14 16 17 20 22 23 22 23
10 11 11 15 14 12 12 10 9 8 6 4 2 2 0 2 3 5 6 9 9 11 12 16 15 16 21 25 27 26 25 24
14 13 13 15 16 16 13 12 10 9 7 5 4 4 2 2 5 6 8 10 13 16 16 19 21 21 25 28 31 28 26 27
12 9 10 15 14 14 12 9 7 7 6 5 6 11 11 10 10 11 12 14 15 18 19 22 26 28 29 31 32 30 29 31
16 13 14 12 11 9 10 8 8 8 8 8 7 6 6 7 9 12 15 17 18 20 21 22 26 29 29 29 33 31 33 34
Wind_Direction
283 245 255 262 260 245 224 214 213 207 197 201 202 204 207 208 211 217 218 225 225 230 227 231 231 230 232 229 230 233 228 220
286 291 295 283 263 242 222 208 205 194 189 189 194 200 204 211 219 220 220 224 224 231 232 232 231 229 235 233 229 224 225 218
287 306 317 304 284 251 211 204 195 193 191 188 195 193 209 216 218 222 225 226 229 233 233 237 239 238 231 235 233 225 222 210
306 324 355 343 326 242 196 184 183 188 184 183 182 183 196 202 212 221 220 222 229 238 241 243 245 245 234 233 229 230 218 212
261 3 16 2 0 129 160 169 175 178 192 187 186 181 181 201 208 215 218 220 227 236 242 246 251 251 245 238 245 234 215 204
194 114 68 22 65 126 150 158 166 180 184 190 185 181 185 190 200 211 220 227 233 240 244 245 250 253 258 261 253 243 229 212
180 150 114 99 114 126 134 145 157 169 178 185 190 197 190 178 178 191 207 217 227 232 238 245 251 256 259 262 259 252 245 229
186 174 149 137 134 131 136 142 149 160 170 178 187 192 196 191 194 196 201 207 219 231 239 237 242 259 262 261 253 250 248 237
194 184 155 145 139 138 136 138 136 145 150 154 161 168 172 178 182 185 212 231 242 242 239 245 254 256 244 248 246 257 259 248
195 182 152 144 131 128 128 123 119 123 128 132 133 136 140 159 168 182 197 219 253 271 268 265 263 264 265 257 250 246 245 240
186 179 149 122 123 126 123 121 122 126 132 138 140 142 153 166 191 203 218 235 247 248 259 261 259 260 257 245 239 239 238 238
182 163 143 127 127 122 120 120 121 120 122 118 115 111 114 120 127 133 164 285 286 282 277 273 267 255 244 238 233 232 226 223
163 160 151 144 130 123 119 117 120 120 122 121 119 123 126 121 113 120 198 236 265 270 265 263 268 262 246 238 235 227 220 213
131 136 143 137 132 123 115 114 129 138 136 127 124 126 132 133 148 183 265 274 274 268 269 267 257 246 250 240 233 227 220 218
149 139 129 128 129 128 129 135 136 135 125 118 110 96 326 290 296 308 315 295 284 287 283 275 269 260 243 241 234 224 219 224
146 134 130 127 119 115 121 129 131 138 143 132 134 139 184 244 306 318 309 288 281 281 277 270 263 265 259 246 234 225 228 233
147 135 132 132 131 131 135 137 132 135 128 129 138 160 125 2 340 317 301 306 302 299 292 284 280 274 268 254 242 235 232 232
136 132 131 129 129 132 129 121 104 93 83 50 24 13 4 347 325 315 316 316 307 301 296 293 287 279 273 257 246 244 243 238
147 146 138 119 112 93 83 72 61 40 28 16 11 1 330 321 320 311 310 308 299 290 288 289 286 281 282 277 258 247 244 240
Height
743 747 746 747 746 747 749 750 755 761 769 776 781 786 790 794 796 799 804 808 813 817 820 823 827 829 831 833 836 838 840 843
739 738 741 740 739 739 743 746 749 755 761 768 775 779 785 789 791 795 801 804 808 812 815 818 822 824 826 828 830 832 834 837
736 736 736 735 733 732 736 741 746 753 759 765 772 776 781 785 789 793 796 799 803 807 809 813 816 819 822 823 826 829 831 833
733 734 735 734 731 729 732 737 743 751 756 761 768 774 779 783 785 788 791 796 799 803 806 808 810 812 814 817 821 823 825 826
734 735 735 734 731 729 732 736 741 748 752 759 763 768 774 777 780 783 788 790 794 797 801 803 805 807 809 810 812 814 818 820
732 734 734 735 733 732 734 736 741 745 752 757 761 767 771 773 776 781 785 787 790 793 797 798 801 802 804 806 807 809 811 814
732 735 733 735 736 735 735 737 742 747 751 755 759 764 768 770 774 777 781 785 787 789 792 794 797 798 800 801 802 804 806 807
730 732 735 736 739 738 738 738 742 746 751 755 758 762 765 767 772 776 780 782 785 787 789 790 792 793 797 798 798 798 798 801
729 730 733 736 738 741 741 742 745 749 753 756 758 760 763 766 768 771 776 781 784 785 785 786 787 789 788 788 791 795 797 796
730 733 733 738 739 743 743 745 748 752 754 758 760 761 763 766 769 771 772 774 779 783 784 785 785 786 787 788 786 787 788 790
728 733 735 737 740 743 745 747 750 752 755 759 761 763 766 768 770 772 774 775 776 777 780 782 782 783 783 784 784 784 787 791
725 731 736 738 741 743 746 750 753 757 759 762 763 765 766 769 772 773 774 776 777 778 779 782 782 779 779 780 779 780 783 784
726 731 734 738 742 745 748 751 755 759 761 762 764 766 768 770 772 773 775 774 774 776 776 776 780 781 779 778 779 779 779 780
729 732 737 741 744 746 749 752 757 760 762 764 767 767 768 769 772 773 772 772 773 775 775 774 772 769 778 776 775 777 779 781
731 733 736 739 742 745 749 754 757 761 764 767 769 770 770 770 771 771 771 772 772 771 772 772 772 773 769 773 772 770 769 775
731 731 734 738 743 749 752 755 757 761 763 765 767 767 768 769 769 769 768 770 769 769 767 769 765 765 770 769 770 767 769 772
729 733 737 741 744 748 755 758 759 761 763 765 765 766 766 766 765 766 766 766 765 764 760 764 762 760 764 765 769 765 763 764
732 740 743 744 749 752 754 756 758 758 761 763 762 759 759 762 763 762 759 757 759 758 757 759 756 758 759 760 760 759 760 761
721 732 741 745 748 752 751 753 753 755 755 756 757 757 759 758 755 755 756 755 754 754 753 755 756 755 755 753 753 753 753 753